Weather in Balyksa

Russia / Republic of Khakassia     53°25′01″N   89°08′20″E
temp.,
°C
wind,
m/s
gust,
m/s
humid.,
%
clouds,
%
prec.,
mm/h
press.,
hPa
HPBL,
m
8 august, mon
mon801:00+10ene22821 0.0 101023
04:00+9ne228294 0.0 101021
07:00+11ene117680 0.0 101141
10:00+19ese12505 0.0 1010520
13:00+24ne01388 0.0 10081642
16:00+24nw1136100 0.0 10082051
19:00+20ese1163100 0.0 100814
22:00+15ne1176100 0.3 101016
9 august, tue
tue901:00+14ne2271100 0.3 101133
04:00+12ene227354 0.0 101028
07:00+14ene227299 0.0 101061
10:00+19e235450 0.0 1010484
13:00+23ese123966 0.0 10081766
16:00+24ne223981 0.0 10072124
19:00+19ene246695 0.1 1008120
22:00+14ese229291 1.9 101047
10 august, wed
wed1001:00+13ne2289100 2.3 101028
04:00+13ene1186100 0.0 101012
07:00+12ne228877 0.0 101051
10:00+19ese125718 0.0 1010657
13:00+23e224523 0.0 10081682
16:00+21e116094 0.2 1008277
19:00+19ene116899 0.2 100820
22:00+17ene2268100 0.0 100929
11 august, thu
thu1101:00+15ene1174100 0.1 101011
04:00+14ne118899 0.3 101011
07:00+14ene119096 0.4 101139
10:00+18se116791 0.0 1010492
13:00+20s115937 1.3 1009991
16:00+21n225595 1.3 10091206
19:00+18ne118154 2.6 100949
22:00+12ne2289100 0.1 101021
12 august, fri
fri1201:00+12ne2191100 0.1 101015
04:00+11n0191100 0.1 101010
07:00+12wsw1194100 0.4 101142
10:00+16s108235 0.0 1011344
13:00+19sw117710 2.1 1011658
16:00+22ne12554 0.9 10091349
19:00+18ene118792 3.8 100919
22:00+14ne229394 0.7 101026